Location: Unspecified
(49.9820°N, 20.4363°E)
Time: 19:16:09
(UTC+02:00)

A-11 Canister half - Pass Details

Date: 18 May 2026
Orbit: 1515 x 1685 km, 47.2° (Epoch: 6 June)

Event Time Altitude Azimuth Distance (km) Brightness Sun altitude
Rises 02:50:46 0° 285° (WNW) 4,680 11.4 -14.3°
Reaches altitude 10° 02:53:55 10° 281° (W) 3,686 10.8 -14.0°
Maximum altitude 03:02:41 50° 210° (SSW) 1,866 9.1 -13.2°
Drops below altitude 10° 03:11:28 10° 138° (SE) 3,691 10.9 -12.3°
Sets 03:14:38 0° 133° (SE) 4,687 11.5 -12.0°
